Date,TemperatureHighF,TemperatureAvgF,TemperatureLowF,DewpointHighF,DewpointAvgF,DewpointLowF,HumidityHigh,HumidityAvg,HumidityLow,PressureMaxIn,PressureMinIn,WindSpeedMaxMPH,WindSpeedAvgMPH,GustSpeedMaxMPH,PrecipitationSumIn
2013-8-1,78.6,62.9,45.9,58.8,53.5,44.0,94,74,48,30.05,29.94,17,4,17,0.00
2013-8-2,82.7,63.6,46.2,60.3,54.2,44.3,94,74,43,29.98,29.86,16,4,16,0.00
2013-8-3,78.0,63.4,55.9,60.0,55.7,52.8,90,77,52,29.99,29.88,14,5,14,0.00
2013-8-4,76.2,61.1,52.6,59.6,53.6,50.0,91,78,55,30.02,29.91,16,4,16,0.00
2013-8-5,79.4,62.3,52.5,60.5,54.2,49.4,90,77,52,30.04,29.90,14,4,14,0.00
2013-8-6,78.8,62.1,51.3,59.2,53.2,48.8,92,75,49,30.05,29.94,16,3,16,0.00
2013-8-7,76.1,63.6,56.6,58.7,54.8,51.6,86,74,54,30.10,30.01,13,5,13,0.00
2013-8-8,82.5,65.6,54.8,59.3,55.4,51.4,89,72,44,30.04,29.90,17,4,17,0.00
2013-8-9,80.1,62.7,53.7,60.0,54.2,50.9,91,76,47,29.99,29.88,15,4,15,0.00
2013-8-10,82.3,65.0,53.5,61.4,56.0,50.6,91,75,46,30.05,29.95,12,4,12,0.00
2013-8-11,81.0,65.0,55.7,62.1,56.7,52.9,93,77,51,30.04,29.90,14,4,14,0.00
2013-8-12,82.7,63.9,49.4,62.6,55.1,47.3,94,75,50,30.01,29.90,13,4,13,0.00
2013-8-13,94.5,69.6,51.4,62.3,54.8,47.3,92,66,23,30.00,29.86,13,3,13,0.00
2013-8-14,87.0,68.6,49.9,61.1,56.3,47.7,93,68,41,29.98,29.85,17,4,17,0.00
2013-8-15,91.2,71.3,53.0,67.2,60.2,50.6,93,72,38,29.95,29.86,12,3,12,0.00
2013-8-16,93.0,73.2,61.5,67.6,60.7,48.1,92,69,24,29.98,29.89,13,4,13,0.00
2013-8-17,80.6,68.0,54.6,63.5,58.6,51.9,92,74,53,29.98,29.82,13,3,13,0.00
2013-8-18,95.7,73.9,58.0,66.0,61.0,55.6,92,68,37,29.90,29.74,12,3,12,0.00
2013-8-19,98.0,73.6,61.9,67.0,62.0,57.1,90,69,36,29.90,29.77,12,3,12,0.00
2013-8-20,83.5,69.1,59.6,63.9,59.1,54.8,88,72,50,29.89,29.78,15,4,15,0.00
2013-8-21,85.5,67.4,55.4,61.4,56.7,52.4,93,71,42,29.93,29.81,13,3,13,0.00
2013-8-22,83.8,65.2,51.5,59.8,54.4,48.8,92,71,40,29.97,29.84,14,3,14,0.00
2013-8-23,80.2,64.1,50.2,61.9,55.7,48.0,93,76,52,29.93,29.77,15,4,15,0.00
2013-8-24,88.3,67.1,49.2,61.3,55.6,47.3,94,70,36,29.88,29.79,17,3,17,0.00
2013-8-25,88.8,69.3,56.2,64.3,58.7,53.3,92,72,38,29.93,29.86,18,3,18,0.00
2013-8-26,87.5,69.5,57.0,61.7,57.4,53.3,91,69,38,30.00,29.86,14,3,14,0.00
2013-8-27,89.8,67.8,50.0,61.7,54.8,47.8,93,68,32,29.90,29.77,13,3,13,0.00
2013-8-28,92.1,68.7,51.6,64.9,58.3,49.6,94,73,39,29.92,29.82,10,3,10,0.00
2013-8-29,91.5,72.5,61.3,65.8,60.9,58.6,93,71,36,30.03,29.92,10,3,10,0.00
2013-8-30,97.3,74.2,55.7,67.1,59.6,53.6,94,66,30,30.03,29.87,12,3,12,0.00
2013-8-31,88.6,69.2,52.5,63.2,56.5,49.9,93,68,33,29.96,29.84,13,4,13,0.00